Flag for Greenland Weather past 2 weeks in Ilulissat, Greenland

Now
50 °F

Partly sunny.


Feels Like: 50 °F
Forecast: 46 / 54 °F
Wind: No wind

Location: Jacobshavn Lufthavn

Current Time: Jul 24, 2014 at 4:26:40 AM

Latest Report: Jul 24, 2014 at 3:50 AM


Visibility: N/A

Pressure: 29.95 "Hg

Humidity: 76%

Dew point: 43 °F

Location of IlulissatLocation

Historic Weather in Ilulissat — Graph

°F

Ilulissat temperature yesterday

Maximum temperature yesterday: 61 °F (at 2:50 PM)
Minimum temperature yesterday: 46 °F (at 1:50 AM)
Average temperature yesterday: 54 °F

Past Weeks' High & Low Weather Summary

 TemperatureHumidityPressure
High63 °F (Jul 20, 1:50 PM)100% (Jul 10, 6:50 PM)30.07 "Hg (Jul 10, 6:50 PM)
Low36 °F (Jul 11, 3:50 AM)27% (Jul 18, 4:50 PM)29.65 "Hg (Jul 9, 3:50 AM)
Average47 °F67%29.86 "Hg
* Reported Jul 9 3:50 AM — Jul 24 3:20 AM, Ilulissat, Weather by CustomWeather, © 2014

Note: Actual official high and low records may vary slightly from our data, if they occured in-between our weather recording intervals... More about our weather records

Advertising

Ilulissat weather history for previous 24 hours

 ConditionsComfort  
Time TempWeatherWind HumidityBarometerVisibility
3:20 AM
Jul 24
50 °FPartly sunny.No wind76%29.95 "HgN/A
2:50 AM50 °FOvercast.No wind76%29.95 "HgN/A
2:20 AM50 °FPartly sunny.No wind76%29.95 "HgN/A
1:50 AM50 °FOvercast.No wind76%29.95 "HgN/A
1:20 AM50 °FPartly sunny.No wind76%29.95 "HgN/A
12:50 AM50 °FPartly sunny.No wind82%29.95 "HgN/A
12:20 AM52 °FPartly sunny.No wind72%29.95 "HgN/A
11:50 PM
Jul 23
52 °FPartly sunny.No wind72%29.95 "HgN/A
11:20 PM52 °FPartly sunny.2 mph72%29.95 "HgN/A
10:50 PM52 °FPartly sunny.5 mph72%29.95 "HgN/A
10:20 PM52 °FBroken clouds.6 mph72%29.95 "HgN/A
9:50 PM52 °FPartly sunny.7 mph67%29.95 "HgN/A
9:20 PM55 °FPartly sunny.No wind63%29.95 "HgN/A
8:50 PM55 °FPartly sunny.No wind63%29.95 "HgN/A
8:20 PM55 °FPartly sunny.No wind63%29.95 "HgN/A
7:50 PM55 °FPartly sunny.3 mph63%29.95 "HgN/A
7:20 PM57 °FPartly sunny.No wind59%29.95 "HgN/A
6:50 PM57 °FPartly sunny.1 mph59%29.92 "HgN/A
5:50 PM57 °FPartly sunny.No wind55%29.92 "HgN/A
4:50 PM57 °FPartly sunny.1 mph55%29.92 "HgN/A
3:50 PM57 °FScattered clouds.3 mph55%29.92 "HgN/A
2:50 PM61 °FScattered clouds.6 mph42%29.92 "HgN/A
1:50 PM55 °FScattered clouds.5 mph51%29.92 "HgN/A
12:50 PM54 °FPartly sunny.6 mph54%29.92 "HgN/A
11:50 AM57 °FPartly sunny.5 mph48%29.92 "HgN/A
10:50 AM57 °FBroken clouds.3 mph51%29.92 "HgN/A
7:50 AM54 °FPartly sunny.No wind51%29.89 "HgN/A
6:50 AM52 °FPartly sunny.No wind54%29.89 "HgN/A
5:50 AM50 °FPartly sunny.3 mph58%29.89 "HgN/A
Weather by CustomWeather, © 2014

See weather overviewHow to use our weather pages